Caro, MI

10:34 PM EDT on April 28, 2017 (GMT -0400)
Caro

Weather History for KCFS - May, 2014

Change the Weather History Date:

Saturday, May 3, 2014

  Actual Average (KMBS) Record (KMBS)
Temperature  
Mean Temperature 50 °F -  
Max Temperature 58 °F 62 °F 84 °F (2001)
Min Temperature 43 °F 42 °F 30 °F (2004)
Degree Days  
Heating Degree Days 14    
Moisture  
Dew Point 45 °F    
Average Humidity 86    
Maximum Humidity 98    
Minimum Humidity 49    
Precipitation  
Precipitation 0.00 in - - ()
Sea Level Pressure  
Sea Level Pressure 29.68 in    
Wind  
Wind Speed 8 mph (SW)    
Max Wind Speed 28 mph    
Max Gust Speed 34 mph    
Visibility 7 miles    
Events Rain    
Averages and records for this station are not official NWS values.
T = Trace of Precipitation, MM = Missing Value Source: NWS Daily Summary

Daily Weather History Graph

Daily Weather History Graph

Search for Another Location

Airport or City:

Trip Planner

Search our weather history database for the weather conditions in past years. The results will help you decide how hot, cold, wet, or windy it might be!

Date:

Astronomy

May. 03, 2014 Rise Set
Actual Time 6:23 AM EDT 8:38 PM EDT
Civil Twilight 5:52 AM EDT 9:09 PM EDT
Nautical Twilight 5:13 AM EDT 9:49 PM EDT
Astronomical Twilight 4:30 AM EDT 10:32 PM EDT
Moon 9:51 AM EDT (5/3) 12:00 AM EDT (5/3)
Length of Visible Light 15h 17m
Length of Day
14h 14m
Waxing Crescent, 19% of the Moon is Illuminated
May 3
Waxing Crescent
May 6
First Quarter
May 14
Full
May 21
Last Quarter
May 28
New

Hourly Weather History & Observations

Time (EDT) Temp. Windchill Dew Point Humidity Pressure Visibility Wind Dir Wind Speed Gust Speed Precip Events Conditions
12:15 AM 47.5 °F - 46.6 °F 97% 29.74 in 5.0 mi SSW 6.9 mph - N/A Rain Light Rain
12:34 AM 47.5 °F - 46.8 °F 97% 29.73 in 5.0 mi SSW 6.9 mph - N/A   Drizzle
12:55 AM 47.7 °F - 46.9 °F 97% 29.73 in 5.0 mi SW 8.1 mph - N/A Rain Light Rain
1:15 AM 47.5 °F - 46.8 °F 97% 29.72 in 5.0 mi SSW 6.9 mph - N/A Rain Light Rain
1:35 AM 47.5 °F - 46.8 °F 97% 29.72 in 5.0 mi SW 9.2 mph - N/A Rain Light Rain
1:55 AM 47.3 °F - 46.6 °F 97% 29.72 in 5.0 mi SSW 6.9 mph - N/A   Drizzle
2:15 AM 47.3 °F - 46.4 °F 97% 29.71 in 5.0 mi SSW 8.1 mph - N/A   Overcast
2:35 AM 47.3 °F - 46.8 °F 98% 29.71 in 5.0 mi SSW 6.9 mph - N/A   Overcast
2:55 AM 47.3 °F - 46.6 °F 97% 29.70 in 5.0 mi SSW 6.9 mph - N/A   Overcast
3:14 AM 47.3 °F - 46.8 °F 98% 29.70 in 4.0 mi SW 3.5 mph - N/A   Overcast
3:35 AM 47.3 °F - 46.6 °F 97% 29.70 in 4.0 mi SSW 5.8 mph - N/A   Overcast
3:55 AM 47.3 °F - 46.6 °F 97% 29.70 in 5.0 mi SSW 5.8 mph - N/A   Overcast
4:14 AM 47.3 °F - 46.8 °F 98% 29.69 in 5.0 mi SSW 5.8 mph - N/A   Overcast
4:35 AM 47.3 °F - 46.8 °F 98% 29.69 in 4.0 mi SSW 4.6 mph - N/A   Overcast
4:55 AM 47.3 °F - 46.8 °F 98% 29.69 in 5.0 mi South 5.8 mph - N/A   Overcast
5:15 AM 47.5 °F - 46.9 °F 98% 29.69 in 5.0 mi SSW 5.8 mph - N/A   Overcast
5:35 AM 47.3 °F - 46.8 °F 98% 29.68 in 5.0 mi South 3.5 mph - N/A   Overcast
6:15 AM 47.3 °F - 46.4 °F 97% 29.67 in 5.0 mi South 4.6 mph - N/A   Overcast
6:35 AM 47.3 °F - 46.6 °F 97% 29.67 in 5.0 mi South 4.6 mph - N/A   Overcast
6:54 AM 47.3 °F - 46.6 °F 97% 29.67 in 4.0 mi South 3.5 mph - N/A Rain Light Rain
7:15 AM 47.5 °F - 46.8 °F 97% 29.67 in 3.0 mi South 5.8 mph - N/A Rain Rain
7:35 AM 47.5 °F - 46.8 °F 97% 29.67 in 3.0 mi South 4.6 mph - N/A Rain Rain
7:54 AM 47.5 °F - 46.8 °F 97% 29.66 in 4.0 mi South 4.6 mph - N/A   Light Drizzle
8:15 AM 47.7 °F - 46.9 °F 97% 29.65 in 4.0 mi SSE 4.6 mph - N/A   Drizzle
8:35 AM 47.8 °F - 47.3 °F 98% 29.64 in 4.0 mi SSE 6.9 mph - N/A Rain Rain
8:55 AM 47.7 °F - 46.9 °F 97% 29.63 in 4.0 mi SE 6.9 mph - N/A Rain Rain
9:15 AM 47.7 °F - 46.9 °F 97% 29.63 in 5.0 mi SSE 4.6 mph - N/A   Light Drizzle
9:35 AM 47.8 °F - 47.3 °F 98% 29.63 in 5.0 mi SSE 6.9 mph - N/A   Overcast
9:55 AM 47.8 °F - 47.3 °F 98% 29.62 in 3.0 mi SSE 8.1 mph - N/A   Overcast
10:15 AM 48.2 °F - 47.3 °F 97% 29.61 in 4.0 mi SSE 5.8 mph - N/A   Overcast
10:34 AM 48.2 °F - 47.7 °F 98% 29.60 in 5.0 mi SSE 6.9 mph - N/A   Overcast
10:55 AM 48.7 °F - 48.2 °F 98% 29.60 in 5.0 mi SSE 5.8 mph - N/A   Overcast
11:15 AM 49.1 °F - 48.2 °F 97% 29.59 in 7.0 mi SSE 6.9 mph - N/A   Overcast
11:35 AM 49.3 °F - 48.2 °F 96% 29.59 in 7.0 mi South 8.1 mph - N/A   Overcast
11:55 AM 49.8 °F - 48.2 °F 94% 29.59 in 7.0 mi SSW 8.1 mph - N/A   Light Drizzle
12:15 PM 50.0 °F - 48.4 °F 94% 29.59 in 2.5 mi SSW 10.4 mph - N/A Rain Light Rain
12:35 PM 49.8 °F - 48.6 °F 95% 29.58 in 5.0 mi SW 8.1 mph - N/A   Overcast
12:55 PM 50.9 °F - 49.6 °F 95% 29.58 in 5.0 mi SW 10.4 mph - N/A   Overcast
1:15 PM 50.4 °F - 49.1 °F 95% 29.59 in 3.0 mi SW 10.4 mph - N/A Rain Light Rain
1:35 PM 50.4 °F - 49.3 °F 96% 29.59 in 3.0 mi West 12.7 mph 17.3 mph N/A Rain Rain
1:55 PM 54.3 °F - 52.7 °F 94% 29.59 in 7.0 mi West 15.0 mph 21.9 mph N/A   Mostly Cloudy
2:14 PM 54.7 °F - 50.5 °F 86% 29.60 in 10.0 mi West 19.6 mph 26.5 mph N/A   Overcast
2:35 PM 54.7 °F - 47.8 °F 78% 29.60 in 10.0 mi West 20.7 mph 28.8 mph N/A   Mostly Cloudy
2:55 PM 56.7 °F - 47.8 °F 72% 29.61 in 10.0 mi WNW 15.0 mph 24.2 mph N/A   Mostly Cloudy
3:15 PM 54.5 °F - 44.8 °F 70% 29.62 in 10.0 mi WNW 20.7 mph 28.8 mph N/A   Overcast
3:35 PM 56.7 °F - 46.0 °F 68% 29.61 in 10.0 mi West 17.3 mph 21.9 mph N/A   Mostly Cloudy
4:15 PM 54.9 °F - 45.9 °F 72% 29.61 in 10.0 mi WNW 11.5 mph 16.1 mph N/A Rain Heavy Rain
4:35 PM 55.4 °F - 46.9 °F 73% 29.63 in 7.0 mi West 20.7 mph 26.5 mph N/A   Mostly Cloudy
4:54 PM 58.1 °F - 41.7 °F 54% 29.64 in 10.0 mi West 19.6 mph 32.2 mph N/A   Scattered Clouds
5:15 PM 57.9 °F - 41.4 °F 54% 29.65 in 10.0 mi West 27.6 mph 33.4 mph N/A   Scattered Clouds
5:35 PM 57.9 °F - 39.0 °F 49% 29.66 in 10.0 mi West 20.7 mph 34.5 mph N/A   Scattered Clouds
5:54 PM 56.5 °F - 39.4 °F 53% 29.67 in 10.0 mi West 24.2 mph 32.2 mph N/A   Mostly Cloudy
6:15 PM 55.4 °F - 38.7 °F 53% 29.69 in 10.0 mi West 24.2 mph 33.4 mph N/A   Mostly Cloudy
6:35 PM 55.6 °F - 36.9 °F 49% 29.71 in 10.0 mi West 24.2 mph 34.5 mph N/A   Overcast
6:55 PM 55.0 °F - 38.1 °F 53% 29.72 in 10.0 mi West 21.9 mph 32.2 mph N/A   Overcast
7:15 PM 55.4 °F - 39.2 °F 54% 29.72 in 10.0 mi WNW 12.7 mph 26.5 mph N/A   Mostly Cloudy
7:35 PM 53.6 °F - 38.5 °F 57% 29.74 in 10.0 mi NW 9.2 mph 17.3 mph N/A   Mostly Cloudy
7:55 PM 53.1 °F - 38.7 °F 58% 29.75 in 10.0 mi NW 10.4 mph - N/A   Mostly Cloudy
8:15 PM 52.5 °F - 39.6 °F 61% 29.75 in 10.0 mi NNW 9.2 mph - N/A   Mostly Cloudy
8:34 PM 50.0 °F - 40.1 °F 69% 29.75 in 10.0 mi WNW 5.8 mph - N/A   Scattered Clouds
8:55 PM 46.8 °F - 39.7 °F 77% 29.76 in 10.0 mi NNW 3.5 mph - N/A   Clear
9:15 PM 45.3 °F - 41.4 °F 86% 29.77 in 10.0 mi Calm Calm - N/A   Scattered Clouds
9:34 PM 43.7 °F - 41.0 °F 90% 29.78 in 10.0 mi Calm Calm - N/A   Scattered Clouds
9:55 PM 44.2 °F - 42.1 °F 92% 29.79 in 10.0 mi Calm Calm - N/A   Mostly Cloudy
10:15 PM 46.8 °F - 42.8 °F 86% 29.79 in 10.0 mi NNW 5.8 mph - N/A   Scattered Clouds
10:35 PM 45.7 °F 43.4 °F 41.9 °F 87% 29.80 in 10.0 mi NNW 4.6 mph - N/A   Scattered Clouds
10:55 PM 46.4 °F 42.9 °F 42.3 °F 85% 29.81 in 10.0 mi NNW 6.9 mph - N/A   Mostly Cloudy
11:15 PM 46.6 °F - 41.9 °F 84% 29.81 in 10.0 mi NW 4.6 mph - N/A   Mostly Cloudy
11:35 PM 46.4 °F 44.3 °F 41.9 °F 84% 29.81 in 10.0 mi NNW 4.6 mph - N/A   Mostly Cloudy
11:55 PM 45.1 °F 42.8 °F 41.5 °F 87% 29.82 in 10.0 mi NW 4.6 mph - N/A   Scattered Clouds